Weather History for Middleton, WI

Change the Weather History Date:

Saturday, January 4, 2014

  Actual Average (KMSN) Record (KMSN)
Temperature  
Mean Temperature 25 °F 19 °F  
Max Temperature 34 °F 26 °F 53 °F (1880)
Min Temperature 16 °F 12 °F -26 °F (1884)
Degree Days  
Heating Degree Days 40 46  
Month to date heating degree days 184  
Since 1 July heating degree days 3063  
Cooling Degree Days 0 0  
Month to date cooling degree days 0  
Year to date cooling degree days 0  
Moisture  
Dew Point 17 °F    
Average Humidity 68    
Maximum Humidity 80    
Minimum Humidity 59    
Precipitation  
Precipitation 0.00 in 0.04 in 1.22 in (1874)
Month to date precipitation 0.16  
Year to date precipitation 0.16  
Snow  
Snow 0.00 in 0.40 in 11.70 in (1910)
Month to date snowfall 1.6  
Since 1 July snowfall 19.2  
Snow Depth -    
Sea Level Pressure  
Sea Level Pressure 29.82 in    
Wind  
Wind Speed 12 mph (West)    
Max Wind Speed 17 mph    
Max Gust Speed 30 mph    
Visibility 10 miles    
Events      
T = Trace of Precipitation, MM = Missing Value Source: NWS Daily Summary

Daily Weather History Graph

Daily Weather History Graph

Search for Another Location

Airport:

Trip Planner

Search our weather history database for the weather conditions in past years. The results will help you decide how hot, cold, wet, or windy it might be!

Date:

Astronomy

Jan. 04, 2014 Rise Set
Actual Time 7:29 AM CST 4:36 PM CST
Civil Twilight 6:57 AM CST 5:08 PM CST
Nautical Twilight 6:22 AM CST 5:44 PM CST
Astronomical Twilight 5:47 AM CST 6:18 PM CST
Moon 9:28 AM CST (1/4) 9:03 PM CST (1/4)
Length of Visible Light 10h 11m
Length of Day
9h 06m
Waxing Crescent, 15% of the Moon is Illuminated
Jan 4
Waxing Crescent
Jan 7
First Quarter
Jan 15
Full
Jan 23
Last Quarter
Jan 30
New

Hourly Weather History & Observations

Time (CST) Temp. Windchill Dew Point Humidity Pressure Visibility Wind Dir Wind Speed Gust Speed Precip Events Conditions
12:15 AM 20.8 °F 6.4 °F 12.9 °F 71% 29.71 in 10.0 mi SSW 17.3 mph 29.9 mph N/A   Clear
12:35 AM 21.0 °F 7.1 °F 13.1 °F 71% 29.70 in 10.0 mi SSW 16.1 mph 24.2 mph N/A   Clear
12:55 AM 21.2 °F 8.3 °F 12.9 °F 70% 29.69 in 10.0 mi SSW 13.8 mph 19.6 mph N/A   Clear
1:15 AM 21.0 °F 8.1 °F 13.1 °F 71% 29.69 in 10.0 mi SSW 13.8 mph 20.7 mph N/A   Clear
1:35 AM 21.0 °F 9.3 °F 13.1 °F 71% 29.68 in 10.0 mi South 11.5 mph 19.6 mph N/A   Clear
1:55 AM 21.2 °F 6.8 °F 13.1 °F 71% 29.68 in 10.0 mi SSW 17.3 mph 23.0 mph N/A   Clear
2:15 AM 21.2 °F 10.1 °F 13.5 °F 72% 29.67 in 10.0 mi South 10.4 mph 20.7 mph N/A   Clear
2:35 AM 21.6 °F 8.2 °F 13.5 °F 71% 29.67 in 10.0 mi SSW 15.0 mph 25.3 mph N/A   Clear
2:55 AM 21.7 °F 8.5 °F 13.6 °F 71% 29.66 in 10.0 mi SSW 15.0 mph 24.2 mph N/A   Clear
3:15 AM 21.7 °F 9.0 °F 13.8 °F 72% 29.66 in 10.0 mi SSW 13.8 mph 26.5 mph N/A   Clear
3:35 AM 21.9 °F 8.7 °F 13.8 °F 71% 29.65 in 10.0 mi SSW 15.0 mph 18.4 mph N/A   Scattered Clouds
3:55 AM 22.5 °F 10.5 °F 14.0 °F 70% 29.65 in 10.0 mi SSW 12.7 mph 19.6 mph N/A   Mostly Cloudy
4:15 AM 22.8 °F 12.2 °F 14.0 °F 69% 29.66 in 10.0 mi SSW 10.4 mph 18.4 mph N/A   Mostly Cloudy
4:35 AM 23.5 °F 12.4 °F 14.5 °F 69% 29.66 in 10.0 mi SSW 11.5 mph 17.3 mph N/A   Scattered Clouds
4:55 AM 24.8 °F 12.9 °F 14.9 °F 66% 29.65 in 10.0 mi SW 13.8 mph 20.7 mph N/A   Mostly Cloudy
5:15 AM 25.7 °F 15.7 °F 15.4 °F 65% 29.65 in 10.0 mi SSW 10.4 mph 17.3 mph N/A   Overcast
5:35 AM 25.7 °F 16.4 °F 15.6 °F 66% 29.65 in 10.0 mi SSW 9.2 mph 18.4 mph N/A   Overcast
5:55 AM 26.2 °F 15.2 °F 16.2 °F 66% 29.66 in 10.0 mi SSW 12.7 mph 16.1 mph N/A   Overcast
6:15 AM 26.8 °F 15.4 °F 16.5 °F 65% 29.68 in 10.0 mi SSW 13.8 mph 18.4 mph N/A   Overcast
6:35 AM 27.5 °F 16.8 °F 16.7 °F 64% 29.67 in 10.0 mi SW 12.7 mph 24.2 mph N/A   Overcast
6:55 AM 27.5 °F 15.4 °F 17.1 °F 65% 29.67 in 10.0 mi SSW 16.1 mph 23.0 mph N/A   Overcast
7:15 AM 27.9 °F 16.3 °F 17.4 °F 65% 29.68 in 10.0 mi SW 15.0 mph 21.9 mph N/A   Overcast
7:35 AM 28.4 °F 16.6 °F 17.8 °F 64% 29.70 in 10.0 mi SW 16.1 mph 23.0 mph N/A   Overcast
7:55 AM 28.4 °F 19.1 °F 18.1 °F 65% 29.71 in 10.0 mi SW 10.4 mph 19.6 mph N/A   Overcast
8:15 AM 29.1 °F 18.9 °F 18.5 °F 65% 29.71 in 10.0 mi SW 12.7 mph 18.4 mph N/A   Overcast
8:35 AM 29.3 °F 19.6 °F 18.9 °F 65% 29.71 in 10.0 mi SSW 11.5 mph 19.6 mph N/A   Overcast
8:55 AM 29.8 °F 20.3 °F 19.2 °F 65% 29.72 in 10.0 mi SW 11.5 mph - N/A   Overcast
9:15 AM 30.2 °F 23.4 °F 19.4 °F 64% 29.73 in 10.0 mi SW 6.9 mph - N/A   Overcast
9:35 AM 30.9 °F 22.8 °F 20.1 °F 64% 29.73 in 10.0 mi SW 9.2 mph 16.1 mph N/A   Overcast
9:55 AM 31.5 °F 23.5 °F 20.3 °F 63% 29.76 in 10.0 mi SW 9.2 mph - N/A   Overcast
10:15 AM 31.8 °F 22.8 °F 21.0 °F 64% 29.76 in 10.0 mi SW 11.5 mph 17.3 mph N/A   Overcast
10:35 AM 32.0 °F 23.6 °F 21.2 °F 64% 29.76 in 10.0 mi SW 10.4 mph - N/A   Overcast
10:55 AM 32.0 °F 23.0 °F 21.6 °F 65% 29.76 in 10.0 mi WSW 11.5 mph - N/A   Overcast
11:15 AM 32.0 °F 23.0 °F 22.1 °F 67% 29.76 in 10.0 mi WSW 11.5 mph - N/A   Overcast
11:35 AM 32.4 °F 23.5 °F 22.8 °F 68% 29.76 in 10.0 mi WSW 11.5 mph - N/A   Overcast
11:55 AM 32.7 °F 24.5 °F 23.5 °F 69% 29.76 in 10.0 mi WSW 10.4 mph - N/A   Overcast
12:15 PM 33.1 °F 26.1 °F 24.3 °F 70% 29.76 in 10.0 mi WSW 8.1 mph - N/A   Overcast
12:35 PM 33.3 °F 28.9 °F 24.6 °F 71% 29.76 in 10.0 mi WSW 4.6 mph - N/A   Overcast
12:55 PM 33.1 °F 26.1 °F 24.8 °F 72% 29.76 in 10.0 mi West 8.1 mph - N/A   Overcast
1:10 PM 33.3 °F 27.1 °F 25.0 °F 72% 29.76 in 10.0 mi West 6.9 mph - N/A   Overcast
1:35 PM 33.8 °F 29.6 °F 25.5 °F 72% 29.77 in 10.0 mi West 4.6 mph - N/A   Overcast
1:55 PM 34.0 °F 27.2 °F 25.9 °F 72% 29.78 in 10.0 mi WNW 8.1 mph - N/A   Overcast
2:15 PM 34.0 °F 28.0 °F 26.6 °F 74% 29.80 in 10.0 mi NW 6.9 mph - N/A   Overcast
2:35 PM 33.8 °F 27.0 °F 26.6 °F 75% 29.81 in 10.0 mi NW 8.1 mph - N/A   Overcast
2:55 PM 33.8 °F 28.6 °F 27.0 °F 76% 29.83 in 10.0 mi NW 5.8 mph - N/A   Overcast
3:15 PM 33.1 °F 26.1 °F 27.5 °F 80% 29.85 in 10.0 mi NW 8.1 mph - N/A   Overcast
3:35 PM 32.7 °F 23.4 °F 26.8 °F 79% 29.87 in 10.0 mi NNW 12.7 mph - N/A   Overcast
3:55 PM 32.0 °F 24.2 °F 25.3 °F 76% 29.87 in 10.0 mi NNW 9.2 mph - N/A   Overcast
4:15 PM 31.6 °F 23.1 °F 23.9 °F 73% 29.88 in 10.0 mi North 10.4 mph - N/A   Overcast
4:35 PM 30.2 °F 20.8 °F 21.0 °F 69% 29.88 in 10.0 mi North 11.5 mph - N/A   Mostly Cloudy
4:55 PM 29.3 °F 20.2 °F 21.0 °F 71% 29.91 in 10.0 mi NNW 10.4 mph - N/A   Mostly Cloudy
5:15 PM 28.9 °F 22.8 °F 20.3 °F 70% 29.92 in 10.0 mi NW 5.8 mph - N/A   Overcast
5:35 PM 28.0 °F 20.8 °F 19.6 °F 71% 29.93 in 10.0 mi NW 6.9 mph - N/A   Overcast
5:55 PM 27.3 °F 18.4 °F 18.7 °F 70% 29.95 in 10.0 mi NNW 9.2 mph - N/A   Mostly Cloudy
6:15 PM 26.6 °F 17.5 °F 17.6 °F 69% 29.96 in 10.0 mi NW 9.2 mph - N/A   Scattered Clouds
6:35 PM 25.7 °F 15.1 °F 16.7 °F 69% 29.97 in 10.0 mi NNW 11.5 mph - N/A   Scattered Clouds
6:55 PM 24.8 °F 14.0 °F 15.6 °F 68% 29.98 in 10.0 mi NNW 11.5 mph - N/A   Scattered Clouds
7:15 PM 23.9 °F 13.5 °F 14.9 °F 69% 29.99 in 10.0 mi NNW 10.4 mph - N/A   Scattered Clouds
7:35 PM 23.2 °F 12.6 °F 13.1 °F 65% 30.00 in 10.0 mi NNW 10.4 mph - N/A   Scattered Clouds
7:55 PM 22.6 °F 9.6 °F 12.2 °F 64% 30.01 in 10.0 mi North 15.0 mph - N/A   Clear
8:15 PM 21.9 °F 10.4 °F 11.1 °F 63% 30.02 in 10.0 mi North 11.5 mph - N/A   Clear
8:35 PM 21.2 °F 10.1 °F 10.4 °F 63% 30.02 in 10.0 mi North 10.4 mph - N/A   Clear
8:55 PM 20.3 °F 9.0 °F 9.1 °F 62% 30.03 in 10.0 mi North 10.4 mph - N/A   Scattered Clouds
9:15 PM 19.9 °F 7.3 °F 7.7 °F 59% 30.04 in 10.0 mi North 12.7 mph 18.4 mph N/A   Scattered Clouds
9:35 PM 19.0 °F 5.6 °F 8.2 °F 63% 30.05 in 10.0 mi North 13.8 mph 17.3 mph N/A   Scattered Clouds
9:55 PM 18.5 °F 5.5 °F 6.8 °F 60% 30.05 in 10.0 mi North 12.7 mph 18.4 mph N/A   Scattered Clouds
10:15 PM 18.0 °F 5.4 °F 6.6 °F 61% 30.06 in 10.0 mi North 11.5 mph - N/A   Mostly Cloudy
10:35 PM 17.4 °F 5.4 °F 6.4 °F 62% 30.07 in 10.0 mi North 10.4 mph - N/A   Mostly Cloudy
10:55 PM 17.1 °F 3.0 °F 6.1 °F 62% 30.08 in 10.0 mi North 13.8 mph - N/A   Mostly Cloudy
11:15 PM 16.7 °F 3.2 °F 5.4 °F 61% 30.08 in 10.0 mi North 12.7 mph 17.3 mph N/A   Overcast
11:35 PM 16.5 °F 2.4 °F 4.6 °F 60% 30.08 in 10.0 mi North 13.8 mph - N/A   Overcast
11:55 PM 16.2 °F 3.2 °F 5.0 °F 62% 30.08 in 10.0 mi North 11.5 mph - N/A   Mostly Cloudy